Theta_e
350 351 357 359 359 360 359 359 359 359 359 359 358 357 357 357 356 355 355 355 354 354 354 354 354 354 354 354 353 353 353 354 353 353 352 352 351 351 351 350 348 346 346 346 346 345 345 344 344 344 344 344 344 345 345 346 347 347 347 348 348 348 348 349 349 349 349 349 349 349 349 349 348 348 349 349 348 347 346 346 346 342 343 345 347
349 355 357 357 358 358 359 359 359 359 359 359 358 357 357 356 355 355 355 354 354 354 354 354 354 354 354 353 353 353 353 353 353 353 352 352 351 351 350 347 346 346 346 346 345 345 345 344 344 344 344 343 344 345 344 345 346 346 347 348 348 348 348 349 349 348 349 348 348 348 348 347 348 348 348 348 347 346 346 345 345 342 341 345 346
351 354 357 357 359 358 358 358 359 359 359 358 358 357 357 356 355 355 355 354 354 355 354 354 354 354 354 353 353 353 353 353 353 352 352 352 351 350 349 346 346 346 346 346 346 344 345 345 344 344 344 344 344 343 343 343 345 345 346 347 348 348 348 348 349 349 349 349 349 348 348 347 347 347 347 347 346 345 345 345 345 345 341 345 345
349 353 356 358 359 358 358 358 358 358 357 357 357 357 356 356 356 355 355 355 355 355 355 354 354 353 353 353 353 353 353 353 352 352 351 351 350 349 347 346 346 345 346 346 345 345 345 345 345 345 344 345 345 344 344 344 344 343 344 345 345 347 348 347 347 349 349 350 350 347 344 342 344 346 347 347 346 346 345 344 344 344 345 346 345
350 352 355 355 357 358 357 358 358 358 357 357 357 357 356 356 355 355 355 355 355 355 354 354 353 353 353 353 353 353 353 352 352 352 352 351 351 349 347 346 345 347 347 346 344 344 346 346 345 346 344 344 344 343 344 343 343 342 342 343 343 343 343 345 347 347 351 351 350 346 341 341 342 345 345 345 345 343 344 344 342 342 343 344 346
350 352 354 354 353 357 357 357 357 357 357 356 356 356 356 355 356 356 355 355 355 354 354 354 353 353 353 353 352 353 353 352 352 352 351 352 352 350 346 345 346 347 346 345 345 346 346 346 347 346 346 343 343 343 343 343 342 341 342 342 342 342 342 341 343 345 344 350 352 345 341 341 341 342 345 344 344 343 342 342 342 341 342 342 344
350 351 353 353 353 357 356 357 357 357 356 356 356 356 356 356 356 355 355 355 354 354 354 353 353 352 352 352 352 352 352 351 352 352 352 352 352 350 347 346 347 347 345 346 346 346 347 348 347 348 347 346 343 343 343 343 342 341 340 340 341 340 342 342 340 343 345 344 343 345 339 339 339 340 345 344 344 342 342 342 342 342 341 341 341
348 348 350 352 353 357 356 356 356 356 356 357 356 356 356 356 355 355 355 355 354 353 353 352 352 351 352 351 352 351 351 351 351 352 351 351 351 351 349 347 347 346 346 347 347 346 347 348 348 348 348 348 347 343 342 342 341 340 340 340 341 342 341 344 343 343 346 340 340 336 335 336 337 338 343 344 343 342 342 342 341 340 341 340 340
345 347 350 351 353 356 356 355 355 356 357 356 356 356 356 355 355 355 355 354 354 353 353 352 352 352 352 352 351 351 350 351 351 351 352 351 349 351 350 348 347 347 349 349 347 350 348 348 348 348 347 347 347 345 343 341 341 340 339 340 341 342 344 344 345 348 344 337 336 336 336 336 336 336 341 342 342 342 341 340 340 340 340 340 340
345 348 349 351 352 356 355 355 355 356 356 356 356 356 355 355 355 354 354 354 353 353 353 352 352 351 351 351 351 351 350 350 351 351 350 350 350 350 351 349 348 347 347 347 348 348 349 348 347 347 348 347 346 345 343 341 340 340 340 340 342 343 343 344 345 342 339 335 336 336 338 339 334 334 337 341 342 341 339 339 338 338 339 339 339
346 347 349 350 353 355 354 354 356 356 356 356 355 355 355 355 354 354 354 354 354 353 353 353 352 352 351 351 351 351 350 351 352 351 350 349 350 350 348 349 348 348 349 349 349 348 348 348 347 347 347 347 345 345 344 343 341 340 338 339 342 340 342 342 345 336 331 334 334 334 337 339 333 333 340 340 341 340 339 338 338 338 337 338 338
346 348 350 351 356 354 354 354 355 355 355 355 355 354 354 354 354 353 354 354 353 353 353 353 352 352 351 351 351 351 352 352 352 351 349 349 349 349 349 349 349 349 349 349 348 348 348 347 346 346 346 345 346 345 344 343 343 341 342 339 341 342 342 341 341 338 336 335 333 331 330 332 332 337 340 340 338 337 337 337 337 337 336 337 336
346 349 351 352 352 353 353 354 355 355 355 355 354 354 354 354 353 353 353 353 353 353 353 352 352 352 352 351 351 351 351 352 352 352 350 350 349 350 349 350 350 349 349 349 349 348 347 347 346 345 345 345 346 345 345 345 343 343 343 343 342 343 342 341 339 337 335 334 334 334 334 334 336 339 338 338 338 337 337 337 337 337 336 336 336
347 350 350 348 352 355 353 354 354 354 354 354 353 353 353 353 353 353 352 353 353 353 352 352 352 352 351 351 351 350 350 351 351 352 352 351 351 350 350 350 349 349 349 348 347 346 346 346 346 346 345 345 345 345 345 345 344 343 344 343 343 341 342 342 341 334 336 334 335 334 333 334 334 339 338 339 338 337 336 336 336 336 336 336 335
348 350 348 348 349 352 355 353 353 353 353 353 352 353 353 353 353 353 353 353 353 352 352 351 351 351 350 351 350 350 350 350 351 351 351 351 351 351 350 349 349 349 348 347 346 347 347 346 346 345 345 345 345 345 345 344 345 344 344 343 343 342 342 339 335 336 335 334 334 333 333 333 340 339 337 339 338 338 337 337 336 336 336 335 336
350 348 347 346 348 350 351 354 353 352 352 352 352 352 352 353 352 353 352 352 352 352 351 351 351 350 350 350 350 349 350 351 351 351 351 351 351 350 350 349 348 348 347 347 346 346 347 346 345 345 345 345 345 345 344 344 344 344 343 343 341 342 343 344 340 336 333 333 333 333 332 333 336 336 338 339 338 338 337 336 336 335 335 335 334
349 348 346 344 346 347 348 350 351 353 352 352 352 352 352 352 352 352 352 352 352 351 351 351 351 350 350 349 349 349 349 350 350 351 351 351 350 349 349 348 348 347 347 346 346 346 346 345 345 345 345 345 345 345 344 344 345 342 343 341 343 343 345 347 336 336 336 336 335 333 332 333 338 338 337 337 337 337 336 336 336 336 335 335 335
347 346 344 344 343 344 346 349 350 349 351 351 352 351 352 351 351 351 352 351 351 351 351 350 350 350 350 350 349 349 350 350 350 350 350 350 349 348 348 348 347 347 346 346 346 345 346 346 345 345 345 345 345 345 345 344 344 343 343 343 344 345 346 349 338 337 337 338 334 334 332 334 336 336 336 337 337 337 336 336 335 335 335 335 334
346 345 344 343 342 343 345 348 347 347 349 350 349 351 351 351 351 351 351 351 351 350 350 350 350 350 350 350 350 349 349 350 349 349 350 349 348 348 348 347 347 346 346 346 345 345 344 345 346 345 345 345 345 345 344 344 344 343 343 345 345 346 347 343 337 337 336 334 333 332 332 337 338 337 336 336 337 337 337 335 334 334 334 334 334
346 345 343 342 342 342 344 345 345 346 348 349 350 349 351 351 351 351 351 351 350 350 350 350 350 350 350 349 349 349 349 348 349 348 349 348 348 347 347 347 346 346 346 345 345 343 343 344 345 345 345 345 345 344 344 342 343 343 343 345 345 346 339 343 337 336 335 334 334 331 336 337 337 336 335 336 336 336 334 333 336 335 335 335 334
347 344 343 342 346 347 344 344 345 347 347 347 349 349 350 351 351 351 350 350 350 350 350 350 350 350 349 349 348 347 347 347 347 347 349 347 347 347 347 347 346 346 345 345 344 342 342 341 342 345 345 345 345 344 344 343 342 343 344 344 345 339 340 337 337 336 334 334 334 333 337 337 337 337 336 335 335 335 332 334 333 334 334 334 333
344 344 343 342 342 342 346 343 344 345 343 344 344 348 349 349 349 349 349 350 350 349 349 349 350 349 349 348 347 346 346 347 347 348 346 346 347 347 347 346 345 346 345 344 343 342 341 342 341 343 345 344 344 342 342 343 343 343 344 345 342 339 346 336 336 335 334 333 334 336 337 335 335 335 335 335 336 335 334 334 333 333 333 333 332
341 343 343 340 343 343 345 346 343 342 339 342 343 347 347 347 348 348 348 349 348 348 348 348 346 347 347 346 349 348 347 347 346 346 346 346 346 347 346 345 345 344 344 343 342 341 341 340 342 342 344 344 342 343 341 340 341 343 344 340 339 342 343 340 336 335 334 333 332 336 336 338 336 336 335 335 334 334 333 333 333 333 333 333 332
341 340 340 343 343 342 343 345 343 344 342 343 344 346 346 344 346 346 348 348 348 347 346 346 345 345 345 347 350 350 350 350 346 346 347 345 346 346 346 345 344 344 344 341 342 341 341 340 340 341 340 341 338 342 342 341 341 342 341 341 342 344 340 338 335 335 334 334 333 340 337 336 336 335 335 334 335 335 335 335 334 333 332 332 332
340 341 341 341 343 343 344 344 345 345 344 343 344 344 344 343 344 344 346 345 346 345 345 345 346 347 347 350 347 346 348 347 346 345 344 344 343 343 343 343 343 342 343 339 337 337 339 337 336 336 336 337 338 341 341 341 343 341 341 342 344 340 338 336 336 335 334 334 335 341 336 335 335 335 335 335 335 334 334 334 333 332 332 332 332
342 341 341 340 343 345 344 344 345 345 345 343 343 345 345 342 341 342 342 343 343 344 346 346 346 348 349 348 347 349 348 345 344 344 343 343 342 342 342 342 341 341 341 338 336 336 335 335 333 333 334 337 340 340 341 342 340 342 340 345 343 335 333 338 337 335 334 334 335 337 338 336 336 336 336 335 335 335 335 334 333 333 332 332 332
342 341 342 342 343 345 345 345 344 345 344 345 346 346 345 343 342 342 342 341 345 345 345 345 346 347 346 346 346 345 346 345 342 341 343 344 342 343 343 342 342 341 339 339 336 336 334 335 336 335 336 338 336 336 340 341 340 338 341 343 337 334 335 340 342 335 334 333 336 339 338 336 336 336 335 335 335 335 334 334 333 332 333 332 332
341 342 342 342 342 343 345 344 344 345 345 348 348 345 344 342 340 343 345 347 344 343 344 343 343 346 345 344 346 344 344 342 343 341 342 342 341 341 342 340 339 340 340 342 336 335 333 338 338 336 334 335 336 336 335 335 336 338 341 336 336 338 339 341 342 336 335 334 335 337 339 339 338 336 336 336 335 335 335 335 334 333 333 332 331
342 343 342 341 342 344 345 344 344 344 345 347 347 345 345 344 344 344 345 346 344 343 344 344 343 344 344 343 343 341 341 341 339 343 340 340 339 339 339 338 339 338 340 340 336 336 336 338 336 335 336 338 339 336 335 335 337 342 340 334 335 338 337 342 341 338 336 336 336 338 340 340 338 337 335 335 335 335 335 334 333 333 333 333 332
342 343 342 341 343 344 344 343 344 344 344 345 345 344 344 342 341 341 345 346 344 345 344 344 344 342 343 342 342 342 341 340 341 342 346 348 343 344 341 342 338 343 344 341 341 340 338 337 338 336 334 339 337 340 338 337 334 336 337 335 337 338 339 340 342 338 337 337 337 339 340 341 339 337 337 336 335 334 335 334 334 333 333 332 332
344 342 341 342 343 344 343 344 344 343 344 344 345 343 345 342 343 342 344 343 344 345 344 344 343 343 343 342 342 342 340 340 340 340 339 339 339 341 339 339 340 342 344 343 341 341 343 344 343 345 343 337 341 344 338 342 338 335 333 335 336 336 337 339 341 341 337 337 337 338 339 338 337 338 338 338 336 335 335 335 334 333 333 333 332
342 341 342 342 341 342 343 344 343 343 344 343 343 343 344 342 343 344 343 345 344 344 344 344 344 343 342 342 342 341 340 340 339 339 338 336 334 342 344 343 343 344 345 343 343 345 344 345 346 346 347 347 343 342 338 345 339 332 337 335 336 337 339 338 340 342 337 337 337 337 337 338 339 338 336 338 338 336 335 335 334 335 334 334 333
342 343 343 342 341 341 341 343 344 343 344 344 344 345 344 342 341 343 344 345 344 344 343 343 343 341 341 340 341 342 341 339 340 339 337 336 338 344 343 343 344 345 346 346 346 345 345 346 345 347 345 348 344 338 342 341 335 333 334 335 336 336 339 338 338 340 338 337 336 336 336 336 336 339 339 336 339 337 335 335 335 335 335 335 335
341 342 343 341 342 343 343 344 345 344 345 345 345 344 344 341 341 343 345 344 344 343 343 343 343 342 341 341 340 342 342 342 341 339 338 336 336 337 336 336 338 340 342 346 342 345 343 343 342 340 340 340 340 341 341 340 335 334 334 336 336 336 338 339 338 338 338 336 336 335 335 335 336 336 336 338 338 339 338 336 336 336 336 335 335
338 342 342 341 338 337 336 340 344 344 343 345 345 342 346 341 342 343 344 344 343 343 342 342 343 342 340 340 341 339 341 341 340 338 339 338 337 338 336 338 339 341 342 346 348 343 344 341 339 336 339 341 340 339 338 336 333 332 333 334 335 337 338 338 337 337 337 338 337 336 337 336 337 337 338 336 339 339 339 337 336 336 336 337 336
340 342 342 337 335 337 337 341 344 341 339 343 341 341 341 343 342 342 342 342 342 341 341 341 342 341 339 338 339 340 341 339 340 339 335 340 339 340 339 340 343 345 345 348 347 343 340 344 343 344 339 338 338 337 338 334 332 330 332 334 335 335 337 338 336 336 336 337 336 336 336 336 336 335 339 334 334 336 338 337 337 336 336 336 336
341 339 339 338 336 338 338 341 341 340 340 339 341 340 343 342 341 341 339 340 339 339 340 340 342 340 341 338 339 339 340 339 339 336 336 340 341 340 341 340 342 344 342 342 343 343 341 342 345 344 341 337 335 333 334 335 332 331 331 332 335 336 336 335 336 336 338 337 336 336 335 334 336 337 338 334 333 334 337 338 336 337 336 336 336
341 341 341 339 337 339 340 341 342 342 340 339 337 339 343 343 340 340 339 338 340 340 340 340 339 341 342 340 340 340 339 337 339 339 339 342 341 340 338 340 341 342 340 338 341 342 343 343 342 342 342 342 336 334 334 334 332 332 333 334 334 336 336 334 336 336 335 336 336 334 334 334 335 335 336 337 333 333 334 336 337 337 337 337 335
341 341 341 341 340 339 340 343 343 339 339 339 340 340 341 342 341 339 338 337 338 340 341 339 340 341 340 339 340 339 338 338 338 340 340 340 340 340 339 338 341 341 339 338 341 342 343 343 342 340 343 337 339 337 336 334 331 332 331 333 334 335 335 337 336 334 334 334 336 336 336 334 335 336 335 334 335 333 333 333 334 334 335 336 336
342 341 340 340 339 340 342 342 342 340 341 339 337 338 339 339 337 336 336 338 336 336 340 340 342 341 341 340 340 342 339 337 339 339 340 340 339 338 338 339 339 339 338 338 335 342 341 341 339 339 338 337 338 338 335 334 333 331 329 329 332 333 334 335 335 334 333 333 333 335 334 335 335 334 335 335 335 336 334 333 336 333 335 336 337
341 341 339 339 340 339 340 339 340 342 340 336 336 335 335 334 338 333 333 335 337 338 338 338 339 342 338 338 339 338 338 336 339 337 338 341 339 338 339 340 340 338 338 339 343 340 341 341 338 342 337 335 333 337 337 334 331 328 330 331 331 333 332 334 334 334 334 333 332 333 333 334 334 334 336 334 335 333 334 335 334 334 334 334 333
339 340 338 339 340 340 339 339 339 339 339 337 337 336 335 337 336 335 334 336 335 337 336 338 340 340 338 341 340 337 337 337 339 338 339 340 339 338 340 342 339 338 337 341 342 341 341 341 339 336 339 334 334 336 335 333 328 325 324 324 327 329 332 332 332 333 334 332 331 331 333 332 332 332 333 330 333 334 333 334 334 334 334 333 332
340 340 340 340 339 339 340 339 338 338 338 337 336 335 336 336 334 332 335 334 338 338 336 337 340 339 342 342 341 337 339 337 336 337 338 339 341 341 340 342 341 341 342 341 340 339 340 340 340 336 333 335 334 337 336 335 326 328 328 323 320 320 323 327 330 332 333 331 332 332 333 331 332 332 332 331 331 331 331 331 332 332 333 333 333
339 339 340 340 340 339 338 338 338 339 339 339 339 339 336 335 334 336 337 338 335 337 337 338 340 340 339 339 339 338 339 337 336 336 339 338 337 340 340 339 341 341 341 339 340 338 340 339 340 338 335 329 330 333 337 335 331 326 320 321 321 321 317 320 322 327 331 331 332 332 332 330 330 332 332 331 332 332 332 332 331 333 333 334 334
338 338 339 339 340 339 335 336 339 340 340 339 339 337 335 334 335 336 335 335 337 336 335 334 338 338 338 337 338 337 337 338 337 335 335 337 339 341 342 341 341 342 340 339 337 337 338 339 339 337 336 335 329 332 334 335 333 334 327 321 317 316 317 321 322 322 328 327 329 331 330 329 329 330 329 329 333 331 331 333 334 333 332 334 333
336 338 341 340 337 335 334 339 339 339 337 338 337 333 331 332 334 332 330 330 330 330 328 330 332 334 336 338 339 337 336 338 338 338 336 340 341 342 341 340 340 341 340 338 338 336 337 336 338 337 336 335 332 330 329 334 335 334 333 332 329 320 319 322 322 315 325 327 327 328 330 327 329 330 331 331 331 332 332 332 332 333 333 332 334
336 339 339 334 331 333 336 336 337 336 337 337 335 335 332 331 333 333 334 330 330 334 337 336 335 336 338 337 336 336 335 335 339 339 341 342 341 342 342 340 340 340 338 338 337 337 335 334 335 337 337 335 334 329 328 330 333 334 334 334 332 331 329 321 318 320 316 322 326 326 326 329 329 330 330 330 331 331 331 331 332 331 333 333 332
335 338 335 331 331 331 332 334 334 334 337 337 336 335 332 332 330 332 332 333 330 331 334 336 337 336 335 335 334 334 334 335 340 338 340 341 342 342 341 343 339 338 337 337 337 337 337 335 337 336 338 335 335 332 329 328 328 329 332 330 331 333 331 327 327 323 319 316 319 326 327 328 328 328 330 329 329 329 329 330 330 330 329 332 332
337 334 328 331 330 331 331 333 332 332 334 337 335 334 334 333 331 330 329 331 333 334 335 335 332 335 335 335 334 334 335 337 340 342 338 338 339 340 341 341 341 339 336 337 336 337 337 337 337 337 336 336 336 335 333 330 330 329 330 330 330 330 329 328 326 327 321 318 317 319 320 325 326 327 327 329 329 330 329 330 328 329 329 329 328
326 326 329 329 330 331 333 332 331 331 332 334 335 334 334 332 331 330 328 329 333 334 335 333 333 336 335 335 336 336 337 339 340 339 339 336 338 338 338 338 340 340 337 340 336 337 337 338 338 338 337 335 335 335 333 332 332 332 333 333 329 327 327 325 327 326 323 323 317 317 320 319 319 323 327 327 327 328 328 328 327 328 329 328 326
327 326 328 331 333 335 333 331 330 332 332 332 333 334 334 334 333 331 330 330 333 333 333 333 335 336 334 334 336 337 336 338 339 340 340 337 339 339 339 337 338 337 335 338 339 338 339 339 338 338 338 334 333 333 334 333 333 333 332 332 330 327 323 321 324 324 323 320 319 320 320 321 320 320 324 327 326 326 326 327 326 328 326 323 323
Wind_Speed
11 15 13 15 13 14 15 16 16 16 16 18 18 19 19 19 19 18 18 18 18 17 17 16 15 15 14 15 15 15 14 13 13 14 13 13 13 13 13 13 13 13 14 14 15 14 13 13 13 13 13 13 14 15 15 15 15 15 15 14 14 14 14 15 17 17 17 17 17 18 17 15 16 18 18 19 18 19 16 15 16 12 9 12 19
14 12 11 14 14 15 15 16 16 16 16 17 18 18 18 19 18 18 18 18 17 17 17 16 15 14 14 14 15 15 14 13 13 13 13 13 13 13 13 12 12 13 13 14 14 14 15 14 14 13 13 12 13 14 14 15 14 14 13 13 13 13 14 14 15 15 17 17 18 19 19 17 17 17 17 18 19 19 17 17 18 10 7 17 18
14 12 11 15 16 15 15 15 16 17 17 17 18 18 18 18 18 18 18 18 17 16 17 16 15 14 14 14 15 15 14 13 13 13 13 13 13 13 13 12 12 13 13 14 13 15 14 14 14 13 13 12 13 13 13 13 12 12 11 10 11 10 11 11 13 15 16 19 19 18 19 19 17 16 16 17 18 17 18 16 16 14 11 18 17
15 11 11 15 16 15 15 15 15 16 17 17 17 18 17 18 18 18 18 18 17 17 16 16 15 14 13 14 14 14 13 13 13 13 12 12 12 13 12 11 13 12 13 13 13 13 13 14 15 14 13 12 12 13 12 12 11 10 10 9 9 9 8 9 8 11 14 16 15 13 8 10 11 16 16 16 17 17 16 16 16 15 17 18 19
14 12 12 14 14 14 15 15 15 16 17 17 17 18 18 18 18 17 17 17 16 16 16 16 15 14 13 13 14 13 12 12 12 12 11 12 11 12 12 11 13 13 12 11 12 12 12 13 14 15 13 13 12 12 12 11 10 9 8 8 8 7 6 6 6 7 11 11 13 11 9 10 9 14 15 15 16 16 15 16 15 15 15 17 19
12 11 11 11 14 13 14 15 16 16 16 17 18 18 17 18 19 18 17 16 16 16 15 15 15 14 13 13 13 12 12 11 10 11 12 10 10 12 12 11 13 13 12 11 11 11 11 12 13 14 14 12 12 11 11 11 9 7 7 6 5 4 3 2 5 4 4 7 7 2 10 10 9 8 14 14 14 15 15 16 15 14 14 15 17
13 10 11 12 11 13 14 15 16 16 16 16 16 17 17 18 19 19 17 17 16 15 15 15 14 14 13 12 12 12 12 12 11 12 12 10 10 11 11 12 12 12 11 11 10 9 10 11 12 12 13 13 11 11 10 10 8 6 6 5 2 3 3 4 3 5 7 3 2 2 9 10 9 7 14 14 13 14 15 15 16 14 14 14 16
11 10 11 11 11 14 14 15 16 16 16 16 17 18 18 18 19 17 16 16 15 15 15 14 14 13 13 12 11 12 12 12 12 12 12 10 9 8 10 12 12 11 10 9 9 9 9 9 9 10 12 12 11 10 10 9 8 5 4 4 5 5 4 3 3 4 5 5 4 5 9 10 9 8 13 13 12 14 16 16 15 15 15 15 14
12 12 11 11 12 17 14 15 15 16 16 16 17 17 17 18 18 17 16 16 16 15 15 14 13 13 13 12 12 12 12 12 12 12 10 10 10 8 11 11 10 10 7 7 7 6 8 8 8 9 10 10 11 10 9 7 7 4 4 6 8 9 10 9 10 9 5 6 13 7 10 9 9 8 11 14 14 14 14 14 14 15 15 15 14
13 12 11 10 12 14 15 15 15 15 15 16 16 17 17 18 17 17 16 16 15 15 14 14 13 13 12 12 12 12 12 12 12 12 11 11 10 9 11 10 10 9 8 7 7 7 7 7 8 9 10 9 9 8 7 6 4 3 4 6 9 10 10 11 11 11 4 11 12 14 11 12 8 8 11 14 15 16 16 16 12 13 12 16 15
13 12 12 11 15 13 14 14 14 15 15 15 17 17 18 17 19 17 16 15 15 14 13 13 14 13 13 12 12 12 13 12 12 12 12 11 10 11 12 10 8 8 8 7 7 7 7 9 9 9 8 7 6 5 4 4 3 1 3 4 8 9 11 10 12 6 11 11 10 9 13 16 6 5 13 13 15 16 16 14 15 15 15 15 14
13 9 12 11 15 13 13 14 14 15 17 17 18 18 18 17 18 16 15 14 15 14 13 12 13 13 13 12 12 11 11 13 13 13 13 11 11 11 11 11 8 8 8 7 7 9 10 9 8 7 6 6 5 4 3 1 2 2 5 5 7 9 12 12 9 5 12 12 13 10 10 10 8 12 15 14 15 14 14 14 14 15 15 15 14
14 12 12 13 13 12 13 13 14 14 16 16 17 18 16 16 17 16 15 14 13 13 13 12 11 11 11 12 11 11 12 13 12 11 13 12 12 12 10 9 9 9 8 8 9 9 9 8 7 6 5 5 5 4 2 1 2 4 5 6 8 8 10 13 8 4 12 10 9 11 10 7 9 14 13 15 15 15 14 14 15 15 15 15 15
11 14 12 13 10 14 12 13 13 14 14 14 14 15 15 15 15 14 13 14 12 11 11 12 10 10 10 11 11 12 14 15 13 13 14 14 14 12 10 9 10 9 8 9 9 8 8 6 6 6 5 6 6 5 3 2 2 3 5 6 7 8 9 9 9 5 10 11 9 11 9 6 8 12 14 15 15 14 13 14 15 15 15 15 14
12 14 13 12 12 12 16 12 12 12 12 12 13 13 14 13 13 13 12 13 12 11 12 11 10 11 10 10 11 13 15 15 13 13 14 13 14 12 11 11 11 10 9 9 8 8 8 7 7 6 5 6 7 6 4 2 1 4 5 6 7 9 10 6 5 12 11 9 9 10 9 8 10 11 14 14 14 14 14 15 15 14 15 15 15
12 13 15 13 13 13 12 14 13 12 11 11 11 12 12 12 12 12 12 12 12 12 12 11 12 11 10 9 12 13 14 13 12 12 13 13 13 13 11 11 11 10 9 8 7 7 7 7 6 6 6 7 7 6 4 2 2 4 5 7 8 9 9 6 6 10 9 9 9 9 8 7 11 10 14 14 14 14 14 14 14 14 14 14 13
11 14 14 15 15 13 12 11 11 13 11 10 10 11 10 10 11 11 11 12 12 12 12 12 11 11 10 11 12 12 12 11 12 12 12 13 14 13 11 11 12 10 9 8 7 7 7 7 6 6 6 6 6 5 3 1 2 5 7 8 9 9 10 8 1 9 9 10 9 8 6 7 10 12 13 13 14 14 14 14 14 14 14 14 14
12 13 13 14 13 13 11 11 11 10 8 9 9 9 9 9 10 10 11 12 12 12 11 11 10 11 10 11 12 12 11 11 11 10 12 11 12 12 12 10 10 10 9 7 6 6 7 7 6 6 6 6 6 4 3 2 4 6 8 8 9 11 11 10 2 9 11 11 9 8 5 8 11 11 13 13 13 14 14 14 14 14 14 14 14
11 13 12 13 12 13 12 11 10 9 9 5 5 8 10 10 10 10 11 12 12 12 12 10 11 10 11 12 13 12 12 11 11 10 10 11 12 13 12 11 11 10 8 7 6 6 7 7 6 6 6 7 6 4 3 3 4 6 7 9 10 11 13 7 3 11 12 8 7 6 5 10 10 11 12 12 13 14 14 13 12 13 13 14 14
9 11 12 13 13 13 10 10 10 10 8 6 7 9 9 10 10 11 12 12 12 11 12 11 11 11 12 12 12 11 11 10 12 10 11 11 11 9 12 12 11 11 8 7 6 6 6 7 6 5 7 7 7 5 3 2 3 6 8 9 9 11 6 1 13 11 9 8 7 5 9 10 11 11 11 12 11 12 11 11 13 13 13 13 13
6 10 11 10 10 12 15 11 13 12 10 8 8 8 10 12 10 11 12 12 11 12 12 12 10 11 12 11 10 8 7 7 8 8 12 8 8 11 12 12 10 11 10 8 7 6 6 6 6 6 6 8 8 7 4 3 4 6 8 9 11 6 6 6 10 9 8 7 7 6 12 11 11 11 11 11 11 11 10 12 12 12 12 12 13
7 5 9 10 8 8 9 13 13 16 15 11 9 8 9 10 9 9 9 10 11 11 10 9 10 8 10 9 6 6 6 6 7 9 6 9 9 12 11 11 10 10 9 8 7 5 5 5 5 5 6 7 8 4 2 3 4 6 7 8 6 5 2 9 9 8 8 7 6 7 12 10 9 11 11 11 11 11 11 11 11 12 12 12 12
8 6 7 9 6 7 4 7 6 6 12 11 10 9 10 7 9 9 9 10 10 10 8 8 7 7 8 7 5 3 4 6 5 8 6 10 10 12 13 12 10 9 8 7 6 5 4 4 4 5 5 6 5 4 4 3 2 5 6 5 4 5 0 5 9 8 8 6 6 9 8 10 10 11 10 10 10 11 10 11 11 12 12 11 12
9 8 8 8 9 8 8 9 11 9 7 6 11 10 9 8 8 8 7 8 8 8 7 7 6 6 6 4 2 1 1 3 9 12 11 7 8 9 12 12 11 9 8 6 5 4 3 2 4 4 4 4 5 6 5 3 3 2 2 4 5 0 2 4 7 8 6 8 7 8 9 9 9 10 11 10 10 10 10 11 11 11 11 11 12
8 10 8 9 11 10 10 10 10 10 9 8 10 11 11 9 8 8 8 7 7 6 6 5 3 3 3 3 3 2 1 3 4 5 6 6 6 6 6 6 6 5 7 3 4 5 3 3 2 2 3 3 4 2 2 4 4 4 4 4 3 3 8 5 9 7 6 6 5 7 9 9 9 9 10 10 10 10 10 10 10 10 11 10 11
9 10 11 10 10 9 12 11 11 10 9 11 11 11 11 9 9 8 8 7 7 5 4 5 3 3 2 3 2 1 1 2 5 6 5 6 7 6 6 6 6 6 6 5 5 3 4 4 5 4 4 5 2 2 1 1 3 2 3 1 2 10 5 3 8 7 7 5 6 10 8 8 8 9 9 9 9 9 10 10 10 10 9 10 10
8 9 10 9 9 10 12 12 10 9 10 9 8 9 9 8 7 8 8 7 6 6 6 5 4 4 3 3 2 1 1 0 3 4 6 6 7 6 6 6 5 6 7 5 6 6 5 5 4 4 3 3 3 3 2 1 2 2 2 1 12 1 3 3 5 7 7 6 5 8 7 7 7 9 9 9 9 9 9 9 9 9 9 8 9
9 10 10 11 10 11 13 14 11 8 7 5 8 9 9 9 8 7 6 6 8 6 6 5 4 3 4 3 1 1 1 1 2 4 5 5 5 7 6 7 7 6 7 6 6 6 6 3 2 3 4 4 6 4 3 3 4 3 3 13 6 1 3 3 3 8 7 6 5 5 7 6 7 8 9 9 9 9 9 9 9 9 9 9 9
9 10 10 10 11 10 12 12 10 8 6 5 6 7 9 8 9 9 8 9 6 6 6 7 5 4 3 3 2 2 1 1 1 2 5 5 5 6 7 6 5 6 7 7 5 5 4 3 3 4 5 4 1 3 5 3 2 3 7 13 2 1 3 2 2 7 7 6 5 6 8 7 7 7 8 8 8 8 9 9 8 8 9 10 10
9 9 11 10 10 10 12 12 10 8 7 4 4 6 5 7 9 9 8 7 6 6 8 6 6 5 4 4 3 2 2 1 2 4 1 2 3 2 3 2 3 2 2 2 2 3 4 5 4 5 3 0 3 1 1 1 2 1 12 9 4 3 3 4 2 4 6 5 6 5 9 7 7 7 7 8 8 8 9 9 9 8 9 9 9
9 9 10 11 9 10 11 12 10 10 8 7 5 3 3 5 7 7 7 7 7 6 6 7 6 5 4 4 4 2 2 0 2 3 4 3 4 4 4 5 4 2 2 2 3 3 2 1 1 1 1 3 1 1 2 1 1 11 10 8 4 2 6 0 1 4 4 6 5 5 6 9 8 7 6 6 7 8 9 9 9 9 8 8 8
10 8 8 9 10 11 11 10 11 10 9 9 8 7 6 6 7 6 6 7 8 6 6 6 6 5 6 4 3 4 3 1 0 1 2 2 9 3 2 2 2 2 0 2 1 1 2 0 2 1 1 0 1 2 4 1 4 12 9 7 4 3 4 2 1 1 6 6 5 5 4 4 7 7 7 5 6 7 9 9 9 9 8 8 8
7 9 8 10 9 8 8 10 10 10 9 10 9 7 6 7 7 5 6 7 6 6 6 6 5 5 5 4 3 4 3 2 1 2 2 3 11 2 1 2 2 1 1 2 2 0 2 1 2 1 2 1 1 3 2 1 8 10 8 4 5 6 4 1 2 2 5 6 5 5 4 4 4 5 6 7 5 7 8 8 8 8 8 9 8
8 8 10 11 7 5 3 7 10 10 11 8 7 6 7 7 7 6 6 6 6 6 6 5 5 4 5 4 4 2 3 2 1 3 5 4 7 7 6 5 3 6 6 2 4 2 2 2 2 1 3 2 1 1 1 2 11 9 6 4 1 5 4 3 3 3 4 5 5 5 5 4 4 3 4 6 5 5 6 7 7 6 7 7 7
6 9 10 8 9 7 6 7 7 10 8 5 7 5 3 7 7 7 6 6 7 6 6 6 5 4 3 3 2 2 2 2 2 7 4 4 4 3 2 4 3 5 7 2 1 2 1 2 3 3 2 0 2 2 1 4 7 12 9 3 2 5 3 4 4 3 3 3 4 4 4 4 3 2 3 3 4 4 3 5 6 5 6 6 6
7 10 9 10 8 7 11 7 9 7 9 7 3 2 3 5 6 7 6 7 7 7 6 6 5 4 2 2 2 3 3 3 3 5 2 2 3 4 3 3 3 0 2 2 1 2 3 1 2 2 2 1 2 0 2 4 9 11 5 2 3 4 4 3 3 3 3 4 4 4 4 4 3 2 1 4 3 5 7 5 5 5 5 5 7
9 12 10 10 11 11 10 7 8 8 9 7 7 7 6 5 7 6 5 7 7 5 5 5 5 4 3 3 3 4 4 4 2 5 7 5 4 3 3 3 1 1 2 3 2 1 2 2 0 1 0 1 1 3 0 5 8 10 8 4 2 3 4 2 4 3 3 3 4 4 4 3 2 3 0 3 4 4 5 6 5 5 4 4 5
11 11 11 11 11 12 10 8 7 6 7 8 8 7 5 5 6 6 5 6 6 5 4 5 4 4 4 3 2 5 6 3 4 5 7 4 4 3 3 2 2 1 2 3 2 2 2 2 1 1 1 1 2 1 2 4 9 7 5 4 6 3 4 3 4 4 4 3 4 4 4 4 2 2 1 1 4 4 3 4 5 4 3 3 5
8 11 11 10 9 9 7 7 8 8 7 6 7 5 4 4 6 7 5 6 6 4 5 5 5 3 4 4 4 6 7 6 5 5 5 4 3 1 3 2 2 2 3 4 1 1 1 2 0 1 1 2 2 3 3 6 7 7 5 2 5 3 3 3 4 4 4 3 4 5 4 2 2 2 1 2 3 4 3 2 3 3 2 2 4
7 10 11 10 8 9 8 7 7 7 8 8 5 5 5 4 5 6 5 3 4 3 3 5 4 4 4 4 2 5 4 5 6 4 6 5 3 4 4 5 3 1 2 2 5 1 2 2 1 2 2 2 1 2 2 6 9 9 4 6 4 1 3 3 4 4 3 3 4 3 3 3 3 2 2 4 4 4 2 2 1 3 3 3 5
8 12 11 11 10 11 8 9 7 6 6 6 6 5 6 5 3 4 4 4 3 4 4 3 2 1 4 5 5 6 4 4 6 7 9 6 5 4 4 4 4 4 3 2 2 2 2 2 3 0 2 2 3 2 3 6 8 6 4 5 5 4 2 3 4 5 4 3 4 3 2 4 4 4 5 5 4 3 1 1 1 2 3 3 3
9 12 11 12 12 10 9 8 7 7 6 5 4 4 2 2 3 4 5 5 4 3 3 2 2 2 3 3 6 8 6 4 0 5 7 6 5 5 4 4 6 5 5 3 2 2 3 2 2 2 0 1 2 3 4 3 3 4 4 2 4 4 4 4 4 3 3 5 3 2 3 5 4 3 5 5 2 1 1 0 0 1 1 2 3
8 10 12 12 12 10 9 8 8 6 5 5 4 3 2 4 7 4 2 5 5 5 5 2 1 4 3 2 4 6 4 2 5 7 4 5 5 5 5 3 2 2 2 1 4 3 2 2 2 2 2 2 2 4 3 1 6 4 3 4 2 4 2 3 3 4 4 5 2 2 3 6 3 2 4 5 3 2 1 1 1 1 1 1 2
7 9 11 12 10 9 7 8 8 8 8 6 4 5 7 10 7 4 3 5 4 5 6 3 2 2 4 2 2 7 7 7 5 6 3 4 6 5 2 4 2 3 3 2 2 3 1 1 1 0 2 4 2 2 2 3 4 6 3 1 1 1 4 3 3 3 6 5 4 3 4 4 2 2 3 2 3 3 2 2 4 3 2 1 1
8 10 10 9 8 8 9 6 7 7 7 7 7 8 8 8 6 5 6 5 4 4 4 4 1 2 3 3 2 3 5 7 9 9 8 8 8 4 5 4 4 3 3 3 3 3 2 1 1 1 1 1 5 2 2 2 3 2 4 3 2 1 1 4 5 4 4 2 2 2 2 3 1 2 3 1 2 4 4 4 3 3 3 3 3
11 9 9 9 10 9 7 6 6 7 8 8 9 9 7 7 4 4 6 4 4 5 5 6 4 4 4 3 4 5 4 4 8 12 9 8 6 4 4 5 4 4 4 3 2 4 3 2 1 2 2 3 3 4 2 1 2 4 2 1 1 3 4 4 2 4 2 2 3 2 3 3 1 2 5 4 3 5 5 2 2 3 4 5 4
10 8 9 12 13 8 4 6 7 7 9 9 8 8 9 8 7 7 6 7 3 2 3 7 7 4 1 2 4 3 4 3 5 3 4 4 2 2 3 4 5 4 5 4 3 3 3 3 4 2 2 4 3 2 4 3 2 2 4 2 3 1 3 6 2 5 5 2 4 3 4 6 6 4 4 3 3 2 2 2 3 5 3 3 4
8 10 9 12 14 12 10 6 5 7 8 10 10 9 8 9 9 8 7 8 10 7 5 4 4 4 3 4 2 3 2 3 4 3 5 7 4 3 2 2 4 4 4 4 4 3 4 3 3 3 3 4 3 2 4 4 3 3 4 2 2 2 3 5 4 3 5 6 3 2 4 4 3 2 1 3 3 3 3 2 3 6 5 3 3
4 9 13 11 10 12 11 6 6 5 6 7 9 9 8 7 7 7 8 5 6 5 4 4 4 4 5 3 3 3 3 4 2 2 3 5 5 4 3 3 2 3 3 4 4 4 3 2 2 3 4 3 4 3 3 2 2 2 2 2 3 2 3 5 4 2 3 4 5 5 4 5 5 3 3 3 3 3 3 3 7 7 5 4 6
17 15 10 12 12 12 12 11 11 8 9 9 8 10 9 8 8 9 10 8 6 5 4 5 4 4 4 4 4 4 3 3 3 3 3 4 3 4 4 4 3 2 3 1 3 3 5 3 3 2 4 4 3 2 3 3 2 2 1 3 2 3 3 2 1 2 4 2 5 7 6 6 4 2 2 3 4 3 3 3 7 7 4 4 6
12 12 8 7 11 12 14 15 12 10 12 12 9 9 9 10 10 11 10 11 11 9 6 6 4 4 4 4 4 4 4 4 4 3 3 4 4 3 3 4 3 4 3 3 2 2 3 2 2 4 3 5 3 2 2 3 2 2 2 2 4 3 3 2 3 2 3 3 3 5 6 5 6 5 4 5 6 5 3 7 8 6 5 7 6
Wind_Direction
124 124 126 128 132 134 138 137 135 130 123 123 126 127 127 127 128 128 126 124 123 121 120 117 113 112 108 107 107 106 105 105 104 104 105 103 103 100 100 100 95 95 94 89 85 84 85 83 83 81 77 77 81 77 74 73 70 74 79 79 83 85 85 89 93 93 93 92 88 81 77 73 71 71 66 61 58 54 53 77 78 63 65 65 67
128 121 125 134 131 138 140 139 135 129 125 124 126 128 129 127 128 128 126 124 123 122 121 118 115 112 109 109 109 109 107 108 108 108 106 106 105 103 99 101 102 95 96 94 89 84 79 77 76 77 78 80 85 77 76 72 71 74 78 81 83 89 93 97 100 99 94 89 87 84 81 79 71 70 69 67 63 58 55 56 65 61 67 69 71
120 123 130 132 134 138 143 140 134 131 128 126 128 129 129 129 128 128 125 125 125 126 123 120 117 114 111 110 113 112 112 110 111 109 108 110 110 106 101 101 105 100 95 94 92 86 85 84 81 79 79 83 88 86 81 79 67 74 81 74 77 84 89 96 102 106 108 102 94 89 81 75 73 75 75 74 73 71 68 71 72 67 70 66 65
123 126 130 133 133 138 141 139 134 132 132 130 130 130 129 129 128 127 126 126 127 127 123 122 118 115 112 112 115 116 115 115 113 113 115 115 111 107 108 108 104 103 98 96 98 92 83 79 79 78 78 80 87 86 81 78 65 56 62 67 72 75 83 94 109 119 120 121 117 100 90 77 72 74 75 74 76 74 73 71 72 71 75 68 67
121 126 132 141 138 139 139 137 134 134 134 132 132 131 129 129 128 126 126 125 126 126 126 120 117 115 114 113 116 116 116 118 116 120 117 109 108 109 110 109 104 102 104 101 100 93 84 81 77 76 76 79 89 90 81 74 66 54 51 58 61 69 75 99 110 143 143 152 118 106 96 86 78 72 73 74 75 74 75 77 74 72 71 74 69
127 128 136 142 146 143 138 137 135 135 136 135 136 132 129 128 128 128 126 125 124 124 123 119 116 115 116 116 115 117 118 115 112 115 113 106 105 110 111 114 107 106 104 108 100 96 90 80 77 75 76 77 83 87 79 74 66 50 42 43 51 59 98 121 152 165 216 225 272 34 97 91 82 70 73 74 77 80 80 77 75 71 70 71 68
131 139 139 142 143 144 139 137 135 136 136 135 134 132 129 129 130 130 126 124 122 124 121 120 116 116 118 117 116 115 115 111 97 97 97 99 105 113 117 115 113 108 112 113 109 98 93 90 80 75 73 75 75 74 76 75 69 47 27 23 10 283 183 202 200 190 210 229 278 237 100 94 83 73 74 80 84 82 78 79 79 78 77 73 74
136 141 139 136 142 139 138 136 134 134 135 133 133 133 132 131 131 127 123 123 122 121 121 120 119 120 121 119 115 114 113 107 100 99 98 100 103 111 118 115 113 115 118 115 109 102 96 95 85 78 77 73 74 75 76 78 72 50 16 323 299 293 306 315 280 285 254 273 227 109 78 81 78 77 77 77 79 85 82 75 72 74 69 72 76
145 140 131 129 134 134 134 135 135 134 132 134 134 132 132 132 130 128 125 124 123 122 123 123 125 125 126 123 122 120 117 112 107 108 104 107 118 111 111 116 116 119 120 109 107 101 97 91 92 83 77 74 73 75 76 79 77 58 343 319 323 334 333 332 336 328 268 79 46 66 89 89 90 87 80 81 81 82 84 84 79 74 76 76 77
146 133 122 118 135 129 132 132 132 132 131 133 134 132 131 130 129 129 126 125 124 125 126 130 131 132 133 130 129 127 124 122 118 117 117 119 119 111 109 117 123 128 127 123 118 108 101 103 89 80 72 69 68 67 69 71 82 52 338 324 328 329 337 337 332 317 77 74 67 61 61 70 69 79 83 80 77 76 76 75 80 82 80 77 76
145 137 118 120 133 128 128 127 128 131 132 131 132 131 133 131 133 134 130 128 128 130 133 136 138 137 140 139 137 136 135 130 126 127 128 127 118 116 120 127 133 133 123 120 117 114 99 80 75 68 62 63 65 62 57 62 69 347 338 337 333 332 330 330 331 302 76 81 88 84 77 77 73 82 85 80 77 76 75 81 80 80 78 77 75
127 114 112 113 128 122 123 124 128 130 133 131 134 135 134 134 134 133 134 133 133 135 139 142 140 141 142 143 142 140 141 140 128 131 135 129 124 123 129 138 140 124 118 120 111 95 84 77 69 66 66 65 69 66 56 19 5 334 332 350 337 325 330 330 323 308 85 74 65 67 72 83 85 77 79 82 81 82 84 83 84 82 79 77 79
123 105 100 116 135 118 120 122 123 128 130 130 135 135 133 133 133 136 137 132 135 140 141 139 141 139 143 145 141 141 144 138 126 132 131 126 126 125 135 140 128 125 129 120 106 93 79 76 72 69 68 76 83 94 100 46 310 339 334 335 330 326 319 318 310 307 78 85 88 84 84 75 71 80 84 83 85 84 85 85 82 79 78 77 78
116 104 111 124 127 125 113 117 120 125 128 133 131 130 133 133 134 131 133 137 141 142 137 138 138 137 139 142 143 138 139 137 133 128 122 125 126 130 130 137 131 128 128 119 102 92 92 86 76 70 75 87 100 104 115 184 322 325 323 316 316 308 307 298 285 102 91 82 77 79 80 74 83 81 84 83 84 89 88 83 79 80 80 81 83
117 120 119 123 131 132 119 111 116 117 125 126 128 129 130 131 130 133 137 140 138 132 129 125 122 123 132 140 131 135 139 135 130 124 126 125 125 128 139 136 130 132 129 115 110 105 93 87 80 71 84 94 97 107 118 115 284 321 315 298 303 299 302 313 334 85 92 90 89 87 79 80 70 81 86 90 91 91 84 82 82 84 83 84 74
117 117 121 126 131 132 130 123 113 116 117 121 120 123 127 129 134 137 141 137 129 128 130 132 131 129 133 137 136 143 143 131 124 124 127 128 127 128 138 135 131 135 132 122 116 107 100 93 87 85 89 99 104 108 100 98 312 303 295 287 283 295 298 298 272 106 95 93 90 88 85 86 105 108 92 86 90 94 94 90 88 86 86 81 81
133 128 126 131 136 137 134 130 119 112 111 112 116 120 123 129 134 137 134 128 129 130 135 141 138 135 136 139 142 146 140 129 128 129 129 132 132 134 138 138 138 140 132 134 122 110 107 101 96 100 106 105 107 112 112 95 266 273 268 291 300 301 303 310 2 88 90 93 90 86 89 85 78 80 92 98 92 90 91 92 91 90 87 87 86
130 127 127 130 134 131 132 126 124 128 120 117 109 119 118 122 126 126 126 130 133 136 137 141 139 137 137 141 144 146 137 131 130 130 132 130 131 135 135 139 140 135 139 134 129 117 108 99 96 106 118 119 119 124 149 189 259 273 292 300 306 308 322 331 64 81 85 85 85 82 82 100 99 96 96 98 99 96 90 93 92 93 92 89 87
123 120 122 126 129 125 123 127 131 133 126 117 130 122 123 119 125 126 130 134 139 138 139 140 138 140 142 147 149 144 140 134 133 136 132 130 135 136 137 141 144 143 143 139 133 121 110 108 110 115 128 136 132 147 188 186 250 288 302 306 315 326 319 317 80 81 80 80 89 102 112 122 109 105 101 96 95 95 94 91 96 93 92 93 92
118 125 129 131 129 127 132 137 137 133 131 136 133 139 132 125 127 133 134 136 137 134 139 139 141 144 151 149 151 146 143 145 147 144 139 138 142 142 142 145 153 147 147 147 136 131 124 121 124 132 137 140 144 154 190 230 274 286 300 309 316 313 305 278 82 87 87 91 95 101 106 96 94 99 102 99 97 95 96 98 91 92 93 92 91
102 132 144 126 101 142 151 152 145 144 142 140 143 140 139 139 136 136 140 140 139 141 142 142 142 151 156 157 153 153 155 151 156 153 146 145 152 140 149 150 152 147 151 154 145 142 133 131 143 143 149 151 152 155 184 227 269 287 299 312 319 316 286 90 90 91 96 93 100 106 112 114 116 110 101 101 99 96 98 97 97 94 90 90 92
139 135 112 94 137 154 154 149 147 148 149 160 148 144 149 152 144 144 146 144 142 145 147 152 155 155 161 159 169 170 157 161 168 154 153 149 147 148 156 154 155 149 153 150 148 147 145 141 146 162 164 163 156 159 176 222 268 282 292 305 303 286 283 95 106 97 98 97 101 110 113 113 110 104 102 98 102 108 101 95 96 96 94 92 93
160 116 93 125 143 158 105 91 103 146 157 153 141 147 153 153 151 153 151 151 156 156 160 160 157 162 164 174 181 152 172 161 156 160 150 156 150 154 156 158 154 157 144 147 145 158 162 156 168 180 181 190 183 208 174 167 221 259 280 288 268 268 28 93 86 102 99 105 97 122 121 114 110 108 106 98 91 93 101 102 95 91 91 88 89
142 129 139 146 156 147 147 134 147 162 156 156 140 152 157 158 158 161 157 160 165 169 167 170 166 166 171 145 83 139 148 171 162 166 150 150 147 155 156 156 159 161 156 149 155 175 176 216 224 210 191 211 214 215 166 144 179 181 234 259 258 305 37 64 101 97 107 110 115 121 113 111 107 107 111 111 109 107 98 92 94 97 98 98 95
148 146 149 159 158 145 143 149 151 158 162 158 154 158 161 158 161 160 161 164 171 171 163 155 148 132 143 126 147 127 227 142 134 131 145 145 152 158 160 166 167 168 173 175 178 175 183 197 228 259 243 231 245 129 250 154 179 181 206 236 297 52 33 52 79 86 89 91 113 121 110 110 115 113 109 110 104 102 95 91 91 93 93 93 98
153 153 155 153 147 147 150 154 156 166 163 165 170 158 152 159 160 157 161 164 167 147 132 104 107 135 151 138 115 130 97 155 142 146 148 160 161 169 175 171 179 178 189 189 185 182 200 210 184 196 236 237 275 304 243 189 149 139 239 347 53 61 87 348 84 89 91 100 96 105 110 119 122 113 102 102 111 100 100 102 104 96 87 83 85
155 150 144 145 147 154 154 156 159 162 165 176 168 157 157 155 146 159 157 157 138 129 133 128 133 143 125 125 120 119 144 3 169 157 161 172 172 171 182 182 180 185 200 187 190 160 211 218 174 191 213 226 223 225 213 219 172 170 199 132 43 79 134 52 98 104 103 100 103 107 114 115 109 110 112 114 111 106 107 105 102 103 100 99 95
167 142 143 154 158 159 156 162 163 159 163 166 169 165 153 154 156 159 130 135 136 140 141 131 145 150 133 114 108 113 79 72 308 178 160 184 183 183 179 192 188 190 197 221 165 171 209 161 211 204 215 221 215 186 216 220 154 231 69 55 66 22 25 354 74 111 112 112 116 129 125 119 112 115 121 116 110 115 114 112 110 107 108 107 98
148 147 142 151 159 159 157 162 160 159 156 162 179 169 159 153 142 137 138 149 140 146 147 145 149 142 126 134 151 142 140 326 270 266 158 184 196 190 191 188 203 195 187 208 151 145 189 186 197 220 222 222 269 211 198 205 169 121 87 77 112 104 54 337 64 106 120 130 129 131 126 124 120 120 117 116 115 115 114 112 109 101 100 100 96
147 158 147 149 157 157 159 159 157 153 162 158 191 176 165 140 131 135 136 143 136 147 137 140 136 147 144 165 161 166 164 197 312 325 353 250 198 184 160 176 224 243 106 84 100 153 190 189 187 198 218 226 243 322 50 266 210 129 88 124 149 170 126 344 1 116 127 121 117 128 129 123 124 120 120 122 123 115 111 111 109 102 100 105 110
131 151 148 152 153 152 157 155 152 160 167 160 179 213 170 133 114 133 135 141 142 143 144 135 134 148 154 167 172 157 152 78 1 345 39 311 284 192 199 186 189 132 151 150 138 205 134 267 162 128 105 217 115 344 283 315 30 57 91 105 163 174 79 130 284 110 115 112 120 135 129 134 127 119 118 121 121 115 112 109 107 110 109 111 109
136 151 151 142 148 164 154 155 160 166 169 157 170 185 164 135 116 131 143 143 144 145 130 131 136 140 149 158 166 151 157 141 82 261 76 20 285 244 161 115 88 97 101 85 104 225 163 205 70 261 286 222 149 221 241 149 81 101 109 119 157 108 93 225 165 50 117 118 124 122 124 112 122 129 126 115 106 108 109 114 118 121 121 113 103
152 148 144 145 145 157 157 169 168 165 168 168 165 168 162 135 128 132 139 144 139 130 125 133 137 134 129 153 189 163 139 94 255 179 119 205 245 183 81 67 50 67 100 178 179 152 59 191 176 150 226 138 177 234 226 101 70 92 122 144 169 136 111 214 74 65 105 123 125 128 123 131 126 115 119 113 95 112 118 119 121 115 112 113 117
145 143 152 151 137 141 151 176 175 172 164 162 164 168 158 135 133 136 135 135 128 122 122 129 131 133 143 156 177 147 105 85 290 28 56 317 350 349 39 40 316 351 319 195 194 160 187 181 192 179 247 226 190 254 87 111 96 97 101 118 312 87 133 142 88 85 102 114 129 128 131 123 117 125 120 121 98 115 133 136 129 123 110 115 119
148 150 160 126 113 135 180 191 179 161 150 170 171 188 148 126 127 135 138 135 128 126 136 138 141 130 131 150 147 100 79 84 44 51 35 173 196 230 182 170 207 188 234 257 218 168 199 203 188 200 168 141 316 115 293 79 95 107 109 133 203 122 124 99 107 114 101 102 101 100 94 101 92 74 113 124 109 94 107 137 138 121 106 112 125
143 137 131 133 132 168 193 197 166 149 176 166 121 83 246 138 132 140 141 134 123 127 131 130 128 121 141 131 158 131 100 63 93 101 216 223 200 210 191 195 243 193 282 236 258 191 203 101 293 98 189 123 237 185 203 68 94 102 105 168 124 100 110 105 116 105 113 119 110 106 106 105 103 84 219 137 136 109 106 104 102 119 121 127 120
135 140 147 151 157 180 184 192 165 157 156 145 136 186 193 149 134 134 134 108 112 122 129 131 129 142 146 157 163 132 112 108 179 135 209 214 205 186 181 198 202 183 291 283 215 192 197 139 226 150 106 163 106 205 141 122 85 87 126 170 85 111 97 122 119 114 88 86 102 97 102 107 103 148 125 130 139 133 118 122 117 103 113 115 124
141 146 152 154 162 167 172 185 152 141 151 146 156 196 171 138 128 124 115 108 113 128 132 133 134 133 141 160 178 97 86 207 156 175 224 212 204 193 121 216 218 119 262 273 256 179 211 126 144 315 134 46 41 134 89 70 89 108 108 115 112 108 117 127 121 120 127 114 94 108 118 133 127 110 113 170 128 124 120 105 112 105 114 130 139
152 153 160 153 153 159 173 161 139 138 150 143 154 174 145 139 127 125 124 120 126 113 135 128 139 142 154 165 163 125 165 187 154 197 222 207 190 174 138 213 218 186 218 251 278 187 100 86 41 175 59 118 111 57 85 91 86 96 101 83 67 94 101 134 136 115 107 111 98 101 126 131 129 117 163 146 89 110 115 135 147 163 136 161 161
149 142 155 152 157 159 159 144 136 149 150 143 162 178 156 130 134 134 137 122 128 125 125 109 100 139 145 145 133 111 161 157 162 183 252 203 178 200 174 203 193 142 235 149 238 178 125 123 171 224 131 104 110 106 94 101 107 96 107 74 83 90 87 92 103 104 107 115 104 109 115 125 104 117 116 76 47 27 64 125 116 119 124 110 108
156 138 151 158 159 164 157 147 134 130 136 146 165 161 150 164 162 148 128 113 107 128 94 52 103 83 164 167 155 125 231 171 168 182 222 206 186 195 181 198 196 183 221 178 237 161 137 146 189 208 151 149 145 122 107 103 112 116 105 103 106 90 80 84 93 91 89 70 67 71 80 76 64 43 41 36 55 67 56 24 57 36 111 127 123
169 150 155 162 167 166 160 144 127 148 158 140 147 166 173 53 79 78 81 98 121 73 72 121 135 164 203 184 128 138 208 214 235 236 250 191 198 192 198 194 180 146 220 194 147 122 162 159 170 143 90 89 60 84 96 109 96 131 136 103 77 65 46 59 80 89 89 83 64 66 95 86 74 70 73 64 1 101 75 349 127 92 77 161 155
172 168 159 158 164 162 157 145 135 142 137 141 153 140 80 75 69 71 161 123 125 144 152 255 174 191 203 170 123 118 181 200 190 227 244 270 195 179 193 172 171 138 177 148 154 144 178 154 138 147 118 101 89 64 65 38 118 124 114 127 136 130 95 47 21 57 70 85 113 119 79 81 96 102 105 134 187 129 84 86 40 227 194 188 202
179 179 163 163 157 157 140 130 139 144 145 133 125 91 74 74 109 157 100 76 120 123 119 203 181 193 171 196 155 130 165 163 199 243 177 263 278 170 213 149 179 159 149 157 131 112 71 58 178 29 162 149 138 94 88 93 120 143 107 67 86 91 120 116 94 43 36 30 53 59 78 107 140 110 109 135 128 108 137 189 201 232 195 182 233
192 192 168 149 147 136 121 145 137 132 124 126 106 90 81 78 79 72 77 94 85 120 166 153 176 197 178 188 187 174 178 162 171 205 209 198 218 173 169 152 156 181 150 152 144 139 166 161 169 245 196 124 113 135 106 118 117 54 117 134 116 74 132 112 134 108 97 70 43 40 71 106 128 120 119 182 166 122 210 208 192 163 117 130 122
214 189 169 132 105 95 102 128 140 128 126 117 108 111 123 123 127 134 135 125 146 153 197 146 216 202 201 170 158 196 208 204 205 198 188 169 187 183 157 164 158 167 151 153 161 156 165 154 182 209 119 68 122 127 122 60 97 104 87 69 39 125 141 148 157 118 98 107 135 125 123 153 192 158 158 184 170 163 182 148 154 83 83 105 119
197 181 157 100 88 79 111 167 168 132 119 123 127 134 147 155 168 158 148 138 126 244 160 156 187 184 214 178 194 188 208 216 248 172 136 114 123 163 169 161 156 154 155 164 161 155 163 184 170 183 148 124 107 120 132 136 139 159 119 114 94 97 137 147 136 130 122 138 136 176 156 156 172 163 139 140 136 136 106 118 113 90 79 74 92
184 178 110 111 119 141 178 182 170 132 138 144 146 152 147 158 168 167 148 146 169 190 175 155 137 167 173 210 197 223 216 244 234 152 134 149 180 133 153 178 156 161 161 150 151 174 191 178 173 147 92 124 144 137 134 170 182 120 125 141 140 150 127 81 121 140 128 134 130 170 137 145 74 68 120 164 124 123 133 163 123 95 90 82 67
194 69 86 106 139 166 164 164 150 129 121 139 143 155 158 162 151 152 156 157 147 161 173 130 151 188 187 190 214 222 211 213 172 160 158 156 154 171 158 153 122 153 158 141 154 178 126 120 122 115 114 96 77 70 99 140 80 112 132 139 127 118 113 120 151 170 125 132 129 155 144 133 155 150 146 122 128 134 157 158 107 108 116 111 91
71 95 116 147 163 159 163 161 171 153 155 157 159 160 161 161 164 177 159 156 148 160 168 145 181 204 189 196 197 190 154 151 141 177 184 147 161 157 160 137 142 167 103 154 156 147 132 154 154 113 108 110 91 85 94 100 99 121 157 107 98 114 79 66 88 109 87 114 153 160 151 152 138 154 172 135 137 158 169 123 100 110 129 101 82
94 105 158 173 172 161 157 178 175 153 155 168 170 160 164 172 177 185 171 161 158 155 161 152 170 191 189 183 166 151 130 137 162 165 186 136 142 149 144 132 154 156 160 121 61 88 134 131 145 128 119 114 121 102 95 112 116 123 89 71 70 82 130 142 155 181 166 145 139 147 155 150 131 145 196 164 148 159 126 103 113 134 127 104 99